Data No,UTC Date,UTC Time,Latitude,Longitude,Course(deg),Temp(degC),Sal(psu)
318,2023/6/28,11:25,35-35.78N,139-47.18E,214,23.531,23.7218
319,2023/6/28,11:26,35-35.60N,139-47.11E,186,24.405,23.9564
320,2023/6/28,11:27,35-35.42N,139-47.18E,153,25.021,23.4426
321,2023/6/28,11:28,35-35.28N,139-47.34E,134,24.589,22.4003
322,2023/6/28,11:29,35-35.13N,139-47.53E,133,24.247,22.0573
323,2023/6/28,11:30,35-34.97N,139-47.73E,136,24.479,22.929
324,2023/6/28,11:31,35-34.80N,139-47.93E,136,24.255,22.9261
325,2023/6/28,11:32,35-34.60N,139-48.16E,136,24.157,23.1643
326,2023/6/28,11:33,35-34.42N,139-48.38E,131,23.62,23.7607
327,2023/6/28,11:34,35-34.24N,139-48.64E,131,23.659,24.4519
328,2023/6/28,11:35,35-34.05N,139-48.92E,129,23.488,25.0858
329,2023/6/28,11:36,35-33.87N,139-49.18E,129,23.23,25.4626
330,2023/6/28,11:37,35-33.68N,139-49.46E,129,23.141,26.1326
331,2023/6/28,11:38,35-33.50N,139-49.73E,130,23.104,26.3732
332,2023/6/28,11:39,35-33.31N,139-50.01E,130,23.156,26.4684
333,2023/6/28,11:40,35-33.11N,139-50.30E,129,23.317,26.4875
334,2023/6/28,11:41,35-32.90N,139-50.54E,142,23.543,26.4752
335,2023/6/28,11:42,35-32.63N,139-50.69E,159,23.571,26.6541
336,2023/6/28,11:43,35-32.36N,139-50.80E,161,23.62,26.7549
337,2023/6/28,11:44,35-32.08N,139-50.90E,165,23.741,26.8258
338,2023/6/28,11:45,35-31.78N,139-50.99E,167,23.839,26.9847
339,2023/6/28,11:46,35-31.51N,139-51.02E,176,24.118,27.1661
340,2023/6/28,11:47,35-31.22N,139-51.03E,176,24.176,27.5962
341,2023/6/28,11:48,35-30.93N,139-51.04E,180,24.169,27.9413
342,2023/6/28,11:49,35-30.60N,139-51.03E,183,24.167,28.193
343,2023/6/28,11:50,35-30.33N,139-50.97E,190,24.223,28.2649
344,2023/6/28,11:51,35-30.02N,139-50.89E,193,24.149,28.3051
345,2023/6/28,11:52,35-29.74N,139-50.79E,196,24.062,28.4503
346,2023/6/28,11:53,35-29.50N,139-50.67E,204,23.978,28.6188
347,2023/6/28,11:54,35-29.25N,139-50.49E,212,23.898,28.8157
348,2023/6/28,11:55,35-29.01N,139-50.27E,221,23.776,28.9574
349,2023/6/28,11:56,35-28.84N,139-49.98E,235,23.586,29.1917
350,2023/6/28,11:57,35-28.67N,139-49.68E,235,23.538,29.5113
351,2023/6/28,11:58,35-28.49N,139-49.38E,235,23.581,29.8
352,2023/6/28,11:59,35-28.32N,139-49.06E,236,23.581,29.9948
353,2023/6/28,12:00,35-28.15N,139-48.76E,235,23.716,30.1715
354,2023/6/28,12:01,35-27.98N,139-48.46E,235,23.778,30.2227
355,2023/6/28,12:02,35-27.81N,139-48.15E,235,23.874,30.2308
356,2023/6/28,12:03,35-27.61N,139-47.79E,235,23.902,30.1823
357,2023/6/28,12:04,35-27.43N,139-47.48E,236,23.947,30.0756
358,2023/6/28,12:05,35-27.25N,139-47.17E,234,23.939,29.9969
359,2023/6/28,12:06,35-27.10N,139-46.91E,234,24.058,29.9242
360,2023/6/28,12:07,35-26.92N,139-46.60E,235,24.193,29.8741
361,2023/6/28,12:08,35-26.74N,139-46.28E,235,24.073,29.8021
362,2023/6/28,12:09,35-26.57N,139-45.96E,236,24.134,29.7752
363,2023/6/28,12:10,35-26.39N,139-45.64E,236,24.078,29.6687
364,2023/6/28,12:11,35-26.21N,139-45.33E,235,24.12,29.537
365,2023/6/28,12:12,35-26.02N,139-45.00E,236,24.166,29.4476
366,2023/6/28,12:13,35-25.84N,139-44.68E,235,24.17,29.3313
367,2023/6/28,12:14,35-25.67N,139-44.36E,235,24.279,29.2693
368,2023/6/28,12:15,35-25.47N,139-44.04E,234,24.064,29.2314
369,2023/6/28,12:16,35-25.29N,139-43.73E,235,23.846,29.2086
370,2023/6/28,12:17,35-25.11N,139-43.40E,234,23.425,29.3019
371,2023/6/28,12:18,35-24.91N,139-43.09E,230,23.457,29.3958
372,2023/6/28,12:19,35-24.68N,139-42.85E,213,23.635,29.4611
373,2023/6/28,12:20,35-24.39N,139-42.67E,206,22.416,29.3384
374,2023/6/28,12:21,35-24.11N,139-42.52E,203,22.085,29.5849
375,2023/6/28,12:22,35-23.82N,139-42.36E,203,22.08,29.9676
376,2023/6/28,12:23,35-23.51N,139-42.19E,204,22.361,30.0783
377,2023/6/28,12:24,35-23.23N,139-42.12E,184,22.82,29.9407
378,2023/6/28,12:25,35-22.91N,139-42.13E,177,22.652,29.9136
379,2023/6/28,12:26,35-22.60N,139-42.14E,177,23.145,30.055
380,2023/6/28,12:27,35-22.29N,139-42.16E,176,23.544,30.0855
381,2023/6/28,12:28,35-21.97N,139-42.17E,177,23.677,30.146
382,2023/6/28,12:29,35-21.65N,139-42.19E,177,23.614,30.3039
383,2023/6/28,12:30,35-21.33N,139-42.21E,178,23.384,30.2829
384,2023/6/28,12:31,35-21.03N,139-42.22E,177,23.218,30.394
385,2023/6/28,12:32,35-20.77N,139-42.26E,172,23.147,30.6583
386,2023/6/28,12:33,35-20.53N,139-42.32E,167,23.196,30.8637
387,2023/6/28,12:34,35-20.33N,139-42.38E,165,23.459,30.8248
388,2023/6/28,12:35,35-20.12N,139-42.45E,165,23.461,30.4927
389,2023/6/28,12:36,35-19.93N,139-42.51E,161,23.337,30.1272
390,2023/6/28,12:37,35-19.75N,139-42.65E,142,23.256,30.0778
391,2023/6/28,12:38,35-19.59N,139-42.81E,141,23.154,30.2669
392,2023/6/28,12:39,35-19.42N,139-42.98E,141,23.264,30.3851
393,2023/6/28,12:40,35-19.24N,139-43.14E,143,23.334,30.4119
394,2023/6/28,12:41,35-19.07N,139-43.29E,143,23.429,30.5194
395,2023/6/28,12:42,35-18.88N,139-43.45E,146,23.484,30.6561
396,2023/6/28,12:43,35-18.70N,139-43.60E,146,23.614,30.778
397,2023/6/28,12:44,35-18.52N,139-43.74E,146,23.761,30.8367
398,2023/6/28,12:45,35-18.33N,139-43.89E,147,23.84,30.9685
399,2023/6/28,12:46,35-18.16N,139-44.02E,148,23.846,31.0375
400,2023/6/28,12:47,35-17.97N,139-44.16E,149,23.839,31.0947
401,2023/6/28,12:48,35-17.78N,139-44.29E,149,23.881,31.1361
402,2023/6/28,12:49,35-17.60N,139-44.43E,147,23.881,31.2145
403,2023/6/28,12:50,35-17.41N,139-44.59E,145,23.851,31.2981
404,2023/6/28,12:51,35-17.24N,139-44.73E,144,23.777,31.4327
405,2023/6/28,12:52,35-17.06N,139-44.89E,144,23.782,31.5336
406,2023/6/28,12:53,35-16.88N,139-45.04E,144,23.721,31.6739
407,2023/6/28,12:54,35-16.70N,139-45.20E,145,23.777,32.0471
408,2023/6/28,12:55,35-16.52N,139-45.36E,143,23.794,32.2559
409,2023/6/28,12:56,35-16.34N,139-45.52E,143,23.703,32.3444
410,2023/6/28,12:57,35-16.16N,139-45.68E,143,23.739,32.4154
411,2023/6/28,12:58,35-15.98N,139-45.83E,143,23.755,32.5161
412,2023/6/28,12:59,35-15.80N,139-46.00E,143,23.846,32.5623
413,2023/6/28,13:00,35-15.62N,139-46.16E,146,23.915,32.6085
414,2023/6/28,13:01,35-15.41N,139-46.25E,167,23.884,32.6817
415,2023/6/28,13:02,35-15.19N,139-46.26E,179,23.922,32.7513
416,2023/6/28,13:03,35-14.97N,139-46.27E,177,23.865,32.8484
417,2023/6/28,13:04,35-14.74N,139-46.28E,179,23.892,32.931
418,2023/6/28,13:05,35-14.52N,139-46.28E,178,23.816,32.9932
419,2023/6/28,13:06,35-14.30N,139-46.29E,177,23.762,33.0285
420,2023/6/28,13:07,35-14.09N,139-46.31E,178,23.73,33.0122
421,2023/6/28,13:08,35-13.86N,139-46.32E,178,23.69,32.9358
422,2023/6/28,13:09,35-13.64N,139-46.33E,177,23.686,32.8929
423,2023/6/28,13:10,35-13.42N,139-46.33E,178,23.702,32.8615
424,2023/6/28,13:11,35-13.19N,139-46.35E,177,23.732,32.8052
425,2023/6/28,13:12,35-12.97N,139-46.36E,176,23.754,32.7849
426,2023/6/28,13:13,35-12.73N,139-46.35E,187,23.821,32.8533
427,2023/6/28,13:14,35-12.49N,139-46.28E,194,23.88,32.951
428,2023/6/28,13:15,35-12.24N,139-46.21E,194,23.911,33.0075
429,2023/6/28,13:16,35-11.98N,139-46.13E,194,23.91,33.0204
430,2023/6/28,13:17,35-11.74N,139-46.05E,194,23.956,33.049
431,2023/6/28,13:18,35-11.48N,139-45.97E,194,23.955,33.0996
432,2023/6/28,13:19,35-11.23N,139-45.89E,194,23.912,33.1516
433,2023/6/28,13:20,35-10.98N,139-45.82E,194,23.939,33.1669
434,2023/6/28,13:21,35-10.71N,139-45.75E,194,23.895,33.1773
435,2023/6/28,13:22,35-10.44N,139-45.66E,193,23.679,33.308
436,2023/6/28,13:23,35-10.18N,139-45.59E,193,23.365,33.3928
437,2023/6/28,13:24,35-09.93N,139-45.51E,193,23.113,33.5041
438,2023/6/28,13:25,35-09.71N,139-45.45E,193,23.037,33.5808
439,2023/6/28,13:26,35-09.46N,139-45.34E,203,23.077,33.6348
440,2023/6/28,13:27,35-09.23N,139-45.21E,204,23.099,33.6577
441,2023/6/28,13:28,35-08.99N,139-45.08E,203,23.122,33.6767
442,2023/6/28,13:29,35-08.76N,139-44.96E,203,23.159,33.6814
443,2023/6/28,13:30,35-08.52N,139-44.83E,203,23.174,33.6608
444,2023/6/28,13:31,35-08.29N,139-44.71E,203,23.201,33.6366
445,2023/6/28,13:32,35-08.06N,139-44.57E,207,23.174,33.5917
446,2023/6/28,13:33,35-07.83N,139-44.43E,207,23.125,33.5538
447,2023/6/28,13:34,35-07.60N,139-44.29E,206,23.064,33.5173
448,2023/6/28,13:35,35-07.38N,139-44.15E,206,23.058,33.5076
449,2023/6/28,13:36,35-07.15N,139-44.01E,206,23.087,33.4678
450,2023/6/28,13:37,35-06.93N,139-43.88E,206,23.131,33.4201
451,2023/6/28,13:38,35-06.70N,139-43.74E,206,23.156,33.4159
452,2023/6/28,13:39,35-06.46N,139-43.60E,206,23.195,33.4174
453,2023/6/28,13:40,35-06.24N,139-43.46E,206,23.269,33.4248
454,2023/6/28,13:41,35-06.01N,139-43.31E,207,23.31,33.4113
455,2023/6/28,13:42,35-05.78N,139-43.17E,207,23.34,33.3738
456,2023/6/28,13:43,35-05.54N,139-43.02E,207,23.388,33.3934
457,2023/6/28,13:44,35-05.30N,139-42.89E,202,23.426,33.3831
458,2023/6/28,13:45,35-05.06N,139-42.77E,201,23.503,33.3867
459,2023/6/28,13:46,35-04.81N,139-42.65E,202,23.532,33.3493
460,2023/6/28,13:47,35-04.55N,139-42.53E,199,23.538,33.3229
461,2023/6/28,13:48,35-04.30N,139-42.42E,199,23.546,33.3114
462,2023/6/28,13:49,35-04.05N,139-42.31E,200,23.561,33.3048
463,2023/6/28,13:50,35-03.80N,139-42.20E,200,23.581,33.3098
464,2023/6/28,13:51,35-03.55N,139-42.09E,200,23.612,33.306
465,2023/6/28,13:52,35-03.29N,139-41.99E,192,23.659,33.2926
466,2023/6/28,13:53,35-03.03N,139-41.95E,184,23.672,33.2856
467,2023/6/28,13:54,35-02.76N,139-41.95E,178,23.69,33.2774
468,2023/6/28,13:55,35-02.49N,139-41.97E,176,23.613,33.2745
469,2023/6/28,13:56,35-02.23N,139-41.99E,176,23.594,33.2548
470,2023/6/28,13:57,35-01.95N,139-42.01E,176,23.58,33.1922
471,2023/6/28,13:58,35-01.68N,139-42.03E,176,23.568,33.1707
472,2023/6/28,13:59,35-01.40N,139-42.05E,176,23.555,33.1309
473,2023/6/28,14:00,35-01.13N,139-42.08E,176,23.529,33.1167
474,2023/6/28,14:01,35-00.85N,139-42.10E,175,23.563,33.099
475,2023/6/28,14:02,35-00.57N,139-42.13E,175,23.623,33.0846
476,2023/6/28,14:03,35-00.30N,139-42.16E,174,23.646,33.0548
477,2023/6/28,14:04,35-00.03N,139-42.19E,174,23.661,33.0277
478,2023/6/28,14:05,34-59.75N,139-42.22E,174,23.684,33.0171
479,2023/6/28,14:06,34-59.48N,139-42.25E,174,23.729,33.0024
480,2023/6/28,14:07,34-59.20N,139-42.28E,174,23.68,32.9828
481,2023/6/28,14:08,34-58.93N,139-42.31E,174,23.747,32.9703
482,2023/6/28,14:09,34-58.64N,139-42.35E,174,23.555,32.9515
483,2023/6/28,14:10,34-58.37N,139-42.38E,174,23.507,32.9767
484,2023/6/28,14:11,34-58.09N,139-42.42E,173,23.494,33.0289
485,2023/6/28,14:12,34-57.82N,139-42.49E,162,23.491,33.049
486,2023/6/28,14:13,34-57.57N,139-42.62E,157,23.448,33.0501
487,2023/6/28,14:14,34-57.30N,139-42.76E,156,23.429,33.0594
488,2023/6/28,14:15,34-57.04N,139-42.89E,157,23.435,33.077
489,2023/6/28,14:16,34-56.78N,139-43.02E,157,23.462,33.0892
490,2023/6/28,14:17,34-56.52N,139-43.18E,150,23.478,33.0866
491,2023/6/28,14:18,34-56.29N,139-43.37E,145,23.526,33.0847
492,2023/6/28,14:19,34-56.04N,139-43.58E,145,23.56,33.073
493,2023/6/28,14:20,34-55.80N,139-43.78E,145,23.564,33.0328
494,2023/6/28,14:21,34-55.55N,139-44.00E,141,23.561,32.9953
495,2023/6/28,14:22,34-55.32N,139-44.23E,140,23.528,32.9608
496,2023/6/28,14:23,34-55.10N,139-44.46E,140,23.495,32.9376
497,2023/6/28,14:24,34-54.86N,139-44.70E,140,23.495,32.9511
498,2023/6/28,14:25,34-54.62N,139-44.94E,140,23.491,32.9452
499,2023/6/28,14:26,34-54.40N,139-45.17E,139,23.497,32.9465
500,2023/6/28,14:27,34-54.16N,139-45.41E,139,23.463,32.9627
501,2023/6/28,14:28,34-53.94N,139-45.65E,139,23.412,32.9864
502,2023/6/28,14:29,34-53.70N,139-45.90E,139,23.382,32.9957
503,2023/6/28,14:30,34-53.47N,139-46.14E,137,23.438,33
504,2023/6/28,14:31,34-53.25N,139-46.40E,135,23.329,33.0022
505,2023/6/28,14:32,34-53.03N,139-46.68E,133,23.368,32.9937
506,2023/6/28,14:33,34-52.83N,139-46.98E,126,23.348,33.0016
507,2023/6/28,14:34,34-52.65N,139-47.31E,121,23.418,32.9963
508,2023/6/28,14:35,34-52.50N,139-47.64E,118,23.402,32.9841
509,2023/6/28,14:36,34-52.34N,139-47.98E,119,23.439,32.9703
510,2023/6/28,14:37,34-52.20N,139-48.34E,115,23.464,32.9755
511,2023/6/28,14:38,34-52.08N,139-48.70E,110,23.482,32.9644
512,2023/6/28,14:39,34-51.96N,139-49.08E,109,23.463,32.9558
513,2023/6/28,14:40,34-51.86N,139-49.44E,109,23.424,32.946
514,2023/6/28,14:41,34-51.75N,139-49.83E,107,23.415,32.9665
515,2023/6/28,14:42,34-51.67N,139-50.20E,103,23.227,32.9953
516,2023/6/28,14:43,34-51.60N,139-50.55E,103,23.175,33.029
517,2023/6/28,14:44,34-51.53N,139-50.94E,103,23.161,33.1264
518,2023/6/28,14:45,34-51.46N,139-51.28E,103,23.145,33.1635
519,2023/6/28,14:46,34-51.39N,139-51.65E,101,23.145,33.2033
520,2023/6/28,14:47,34-51.33N,139-52.03E,101,23.125,33.2321
521,2023/6/28,14:48,34-51.28N,139-52.38E,101,23.088,33.2566
522,2023/6/28,14:49,34-51.22N,139-52.77E,100,23.092,33.2848
523,2023/6/28,14:50,34-51.17N,139-53.12E,100,23.023,33.2894
524,2023/6/28,14:51,34-51.11N,139-53.49E,100,22.934,33.2957
525,2023/6/28,14:52,34-51.08N,139-53.86E,95,22.765,33.3228
526,2023/6/28,14:53,34-51.06N,139-54.22E,91,22.839,33.3363
527,2023/6/28,14:54,34-51.07N,139-54.62E,85,22.834,33.3116
528,2023/6/28,14:55,34-51.10N,139-54.98E,85,22.939,33.2844
529,2023/6/28,14:56,34-51.13N,139-55.36E,82,22.946,33.2745
530,2023/6/28,14:57,34-51.19N,139-55.74E,78,23.021,33.2524
531,2023/6/28,14:58,34-51.26N,139-56.12E,76,23.046,33.2344
532,2023/6/28,14:59,34-51.36N,139-56.48E,71,23.081,33.2085
533,2023/6/28,15:00,34-51.47N,139-56.84E,69,23.143,33.2056
534,2023/6/28,15:01,34-51.57N,139-57.21E,69,23.191,33.1897
535,2023/6/28,15:02,34-51.69N,139-57.59E,70,23.196,33.1693
536,2023/6/28,15:03,34-51.79N,139-57.95E,70,23.195,33.1666
537,2023/6/28,15:04,34-51.90N,139-58.33E,71,23.19,33.1674
538,2023/6/28,15:05,34-52.01N,139-58.71E,71,23.143,33.1665
539,2023/6/28,15:06,34-52.12N,139-59.06E,67,22.917,33.1794
540,2023/6/28,15:07,34-52.27N,139-59.42E,63,23.073,33.2522
541,2023/6/28,15:08,34-52.41N,139-59.77E,63,23.186,33.2488
542,2023/6/28,15:09,34-52.56N,140-00.12E,61,23.187,33.1784
543,2023/6/28,15:10,34-52.72N,140-00.48E,62,23.198,33.1483
544,2023/6/28,15:11,34-52.87N,140-00.84E,62,23.21,33.1573
545,2023/6/28,15:12,34-53.03N,140-01.19E,61,23.199,33.1448
546,2023/6/28,15:13,34-53.18N,140-01.54E,61,23.183,33.1485
547,2023/6/28,15:14,34-53.33N,140-01.89E,62,23.163,33.1544
548,2023/6/28,15:15,34-53.50N,140-02.25E,60,23.054,33.1745
549,2023/6/28,15:16,34-53.66N,140-02.60E,60,23.017,33.2306
550,2023/6/28,15:17,34-53.82N,140-02.95E,61,22.98,33.2818
551,2023/6/28,15:18,34-53.99N,140-03.30E,60,22.886,33.2932
552,2023/6/28,15:19,34-54.15N,140-03.65E,60,22.803,33.334
553,2023/6/28,15:20,34-54.30N,140-04.01E,62,22.739,33.3787
554,2023/6/28,15:21,34-54.46N,140-04.37E,62,22.695,33.4108
555,2023/6/28,15:22,34-54.61N,140-04.73E,62,22.649,33.4341
556,2023/6/28,15:23,34-54.77N,140-05.08E,61,22.613,33.4469
557,2023/6/28,15:24,34-54.92N,140-05.44E,62,22.523,33.4617
558,2023/6/28,15:25,34-55.08N,140-05.80E,62,22.431,33.4772
559,2023/6/28,15:26,34-55.24N,140-06.15E,60,22.293,33.5141
560,2023/6/28,15:27,34-55.41N,140-06.52E,60,22.227,33.5395
561,2023/6/28,15:28,34-55.56N,140-06.85E,60,22.203,33.5645
562,2023/6/28,15:29,34-55.73N,140-07.20E,60,22.097,33.5801
563,2023/6/28,15:30,34-55.89N,140-07.54E,59,22.059,33.6106
564,2023/6/28,15:31,34-56.06N,140-07.89E,60,22.084,33.6313
565,2023/6/28,15:32,34-56.22N,140-08.23E,61,22.074,33.6361
566,2023/6/28,15:33,34-56.37N,140-08.57E,60,21.952,33.6601
567,2023/6/28,15:34,34-56.53N,140-08.92E,60,21.821,33.7089
568,2023/6/28,15:35,34-56.70N,140-09.27E,61,21.791,33.757
569,2023/6/28,15:36,34-56.85N,140-09.62E,60,21.75,33.7811
570,2023/6/28,15:37,34-57.02N,140-09.97E,61,21.637,33.7907
571,2023/6/28,15:38,34-57.18N,140-10.32E,61,21.562,33.8072
572,2023/6/28,15:39,34-57.34N,140-10.68E,60,21.287,33.8284
573,2023/6/28,15:40,34-57.51N,140-11.02E,59,21.186,33.8614
574,2023/6/28,15:41,34-57.67N,140-11.36E,59,21.175,33.9123
575,2023/6/28,15:42,34-57.83N,140-11.69E,59,21.144,33.9046
576,2023/6/28,15:43,34-57.99N,140-12.02E,59,21.118,33.8976
577,2023/6/28,15:44,34-58.15N,140-12.35E,59,21.077,33.895
578,2023/6/28,15:45,34-58.31N,140-12.69E,60,21.072,33.8957
579,2023/6/28,15:46,34-58.47N,140-13.02E,59,21.146,33.8979
580,2023/6/28,15:47,34-58.64N,140-13.36E,60,21.231,33.8949
581,2023/6/28,15:48,34-58.80N,140-13.71E,60,21.214,33.8763
582,2023/6/28,15:49,34-58.96N,140-14.03E,58,21.147,33.8622
583,2023/6/28,15:50,34-59.13N,140-14.38E,59,21.274,33.8785
584,2023/6/28,15:51,34-59.30N,140-14.72E,59,21.237,33.876
585,2023/6/28,15:52,34-59.46N,140-15.05E,59,21.306,33.8792
586,2023/6/28,15:53,34-59.64N,140-15.42E,58,21.421,33.8803
587,2023/6/28,15:54,34-59.81N,140-15.76E,58,21.486,33.8637
588,2023/6/28,15:55,34-59.96N,140-16.05E,58,21.527,33.8545
589,2023/6/28,15:56,35-00.13N,140-16.39E,59,21.597,33.8496
590,2023/6/28,15:57,35-00.29N,140-16.72E,58,21.738,33.8481
591,2023/6/28,15:58,35-00.46N,140-17.06E,59,21.864,33.8388
592,2023/6/28,15:59,35-00.62N,140-17.41E,61,21.91,33.8168
593,2023/6/28,16:00,35-00.78N,140-17.76E,60,21.871,33.7995
594,2023/6/28,16:01,35-00.95N,140-18.12E,60,21.848,33.7901
595,2023/6/28,16:02,35-01.12N,140-18.47E,60,21.951,33.7442
596,2023/6/28,16:03,35-01.28N,140-18.82E,61,22.073,33.6734
597,2023/6/28,16:04,35-01.44N,140-19.17E,60,22.179,33.6146
598,2023/6/28,16:05,35-01.60N,140-19.53E,60,22.304,33.582
599,2023/6/28,16:06,35-01.76N,140-19.88E,61,22.364,33.5913
600,2023/6/28,16:07,35-01.94N,140-20.26E,61,22.353,33.5971
601,2023/6/28,16:08,35-02.10N,140-20.60E,61,22.345,33.6268
602,2023/6/28,16:09,35-02.25N,140-20.95E,61,22.331,33.6442
603,2023/6/28,16:10,35-02.43N,140-21.33E,61,22.444,33.6756
604,2023/6/28,16:11,35-02.58N,140-21.67E,61,22.554,33.6491
605,2023/6/28,16:12,35-02.74N,140-22.04E,62,22.579,33.6171
606,2023/6/28,16:13,35-02.89N,140-22.40E,61,22.583,33.5923
607,2023/6/28,16:14,35-03.05N,140-22.76E,61,22.567,33.599
608,2023/6/28,16:15,35-03.22N,140-23.14E,61,22.448,33.6261
609,2023/6/28,16:16,35-03.37N,140-23.47E,61,22.453,33.6823
610,2023/6/28,16:17,35-03.53N,140-23.83E,61,22.418,33.7741
611,2023/6/28,16:18,35-03.69N,140-24.20E,61,22.452,33.8337
612,2023/6/28,16:19,35-03.85N,140-24.54E,61,22.492,33.8947
613,2023/6/28,16:20,35-04.01N,140-24.90E,61,22.523,33.8155
614,2023/6/28,16:21,35-04.18N,140-25.25E,60,22.535,33.7339
615,2023/6/28,16:22,35-04.35N,140-25.62E,60,22.547,33.6979
616,2023/6/28,16:23,35-04.51N,140-25.96E,60,22.535,33.6827
617,2023/6/28,16:24,35-04.68N,140-26.31E,61,22.54,33.669
618,2023/6/28,16:25,35-04.84N,140-26.67E,60,22.54,33.6734
619,2023/6/28,16:26,35-05.01N,140-27.03E,60,22.567,33.6823
620,2023/6/28,16:27,35-05.17N,140-27.39E,61,22.623,33.6879
621,2023/6/28,16:28,35-05.34N,140-27.75E,60,22.682,33.6664
622,2023/6/28,16:29,35-05.51N,140-28.10E,60,22.731,33.6379
623,2023/6/28,16:30,35-05.68N,140-28.46E,59,22.768,33.6166
624,2023/6/28,16:31,35-05.85N,140-28.82E,59,22.796,33.5976
625,2023/6/28,16:32,35-06.03N,140-29.18E,58,22.815,33.5786
626,2023/6/28,16:33,35-06.22N,140-29.53E,58,22.816,33.5657
627,2023/6/28,16:34,35-06.40N,140-29.90E,58,22.805,33.5532
628,2023/6/28,16:35,35-06.57N,140-30.24E,58,22.772,33.5474
629,2023/6/28,16:36,35-06.76N,140-30.61E,59,22.728,33.5515
630,2023/6/28,16:37,35-06.95N,140-30.97E,56,22.688,33.5479
631,2023/6/28,16:38,35-07.14N,140-31.30E,53,22.635,33.5476
632,2023/6/28,16:39,35-07.35N,140-31.65E,52,22.643,33.5674
633,2023/6/28,16:40,35-07.57N,140-31.94E,46,22.65,33.5823
634,2023/6/28,16:41,35-07.82N,140-32.23E,41,22.673,33.5934
635,2023/6/28,16:42,35-08.09N,140-32.49E,38,22.688,33.6084
636,2023/6/28,16:43,35-08.36N,140-32.73E,36,22.684,33.6178
637,2023/6/28,16:44,35-08.63N,140-32.97E,35,22.68,33.6155
638,2023/6/28,16:45,35-08.90N,140-33.20E,35,22.673,33.6106
639,2023/6/28,16:46,35-09.18N,140-33.44E,35,22.675,33.5908
640,2023/6/28,16:47,35-09.46N,140-33.69E,35,22.572,33.5686
641,2023/6/28,16:48,35-09.73N,140-33.92E,35,22.416,33.5844
642,2023/6/28,16:49,35-10.00N,140-34.16E,35,22.48,33.6462
643,2023/6/28,16:50,35-10.28N,140-34.40E,36,22.492,33.694
644,2023/6/28,16:51,35-10.55N,140-34.64E,33,22.143,33.7439
645,2023/6/28,16:52,35-10.85N,140-34.83E,28,22.01,33.7949
646,2023/6/28,16:53,35-11.14N,140-35.03E,28,22.023,33.8518
647,2023/6/28,16:54,35-11.40N,140-35.21E,30,22.289,33.8476
648,2023/6/28,16:55,35-11.68N,140-35.41E,33,22.489,33.8843
649,2023/6/28,16:56,35-11.96N,140-35.64E,34,22.474,33.9899
650,2023/6/28,16:57,35-12.22N,140-35.85E,33,22.409,34.004
651,2023/6/28,16:58,35-12.48N,140-36.06E,32,22.033,34.0106
652,2023/6/28,16:59,35-12.75N,140-36.27E,32,21.98,34.0053
653,2023/6/28,17:00,35-13.03N,140-36.47E,30,21.778,34.0124
654,2023/6/28,17:01,35-13.28N,140-36.66E,31,22.015,33.9411
655,2023/6/28,17:02,35-13.54N,140-36.85E,32,22.258,33.7765
656,2023/6/28,17:03,35-13.79N,140-37.05E,33,22.284,33.5015
657,2023/6/28,17:04,35-14.04N,140-37.26E,33,22.254,33.3617
658,2023/6/28,17:05,35-14.29N,140-37.47E,33,22.241,33.2991
659,2023/6/28,17:06,35-14.53N,140-37.66E,33,22.337,33.2647
660,2023/6/28,17:07,35-14.78N,140-37.86E,33,22.413,33.258
661,2023/6/28,17:08,35-15.03N,140-38.06E,33,22.417,33.2653
662,2023/6/28,17:09,35-15.28N,140-38.26E,32,22.519,33.2698
663,2023/6/28,17:10,35-15.52N,140-38.45E,32,22.569,33.3062
664,2023/6/28,17:11,35-15.77N,140-38.65E,33,22.567,33.3545
665,2023/6/28,17:12,35-16.02N,140-38.84E,33,22.554,33.4024
666,2023/6/28,17:13,35-16.26N,140-39.03E,32,22.554,33.4235
667,2023/6/28,17:14,35-16.51N,140-39.23E,33,22.601,33.4562
668,2023/6/28,17:15,35-16.76N,140-39.43E,32,22.631,33.4933
669,2023/6/28,17:16,35-16.99N,140-39.61E,33,22.574,33.4779
670,2023/6/28,17:17,35-17.23N,140-39.80E,32,22.46,33.4383
671,2023/6/28,17:18,35-17.49N,140-40.00E,32,22.273,33.3956
672,2023/6/28,17:19,35-17.72N,140-40.19E,33,22.192,33.366
673,2023/6/28,17:20,35-17.95N,140-40.38E,34,22.1,33.3544
674,2023/6/28,17:21,35-18.19N,140-40.57E,33,22.06,33.3503
675,2023/6/28,17:22,35-18.43N,140-40.76E,33,22.177,33.34
676,2023/6/28,17:23,35-18.67N,140-40.96E,34,22.186,33.331
677,2023/6/28,17:24,35-18.91N,140-41.15E,34,22.145,33.3499
678,2023/6/28,17:25,35-19.13N,140-41.34E,34,22.138,33.362
679,2023/6/28,17:26,35-19.40N,140-41.56E,33,22.186,33.3736
680,2023/6/28,17:27,35-19.64N,140-41.75E,34,22.233,33.3901
681,2023/6/28,17:28,35-19.87N,140-41.95E,34,22.329,33.4061
682,2023/6/28,17:29,35-20.09N,140-42.14E,35,22.467,33.3907
683,2023/6/28,17:30,35-20.30N,140-42.31E,34,22.54,33.3596
684,2023/6/28,17:31,35-20.54N,140-42.52E,34,22.569,33.3528
685,2023/6/28,17:32,35-20.77N,140-42.70E,34,22.547,33.3572
686,2023/6/28,17:33,35-21.00N,140-42.90E,34,22.496,33.3725
687,2023/6/28,17:34,35-21.24N,140-43.10E,34,22.543,33.4283
688,2023/6/28,17:35,35-21.46N,140-43.28E,34,22.601,33.4716
689,2023/6/28,17:36,35-21.69N,140-43.48E,34,22.647,33.47
690,2023/6/28,17:37,35-21.93N,140-43.68E,34,22.649,33.457
691,2023/6/28,17:38,35-22.15N,140-43.86E,33,22.617,33.4497
692,2023/6/28,17:39,35-22.39N,140-44.06E,34,22.568,33.4554
693,2023/6/28,17:40,35-22.61N,140-44.25E,34,22.52,33.4709
694,2023/6/28,17:41,35-22.84N,140-44.45E,35,22.478,33.4871
695,2023/6/28,17:42,35-23.08N,140-44.65E,34,22.459,33.5118
696,2023/6/28,17:43,35-23.30N,140-44.83E,34,22.425,33.5299
697,2023/6/28,17:44,35-23.54N,140-45.03E,35,22.357,33.5484
698,2023/6/28,17:45,35-23.76N,140-45.23E,35,22.271,33.5673
699,2023/6/28,17:46,35-24.02N,140-45.45E,35,22.201,33.6072
700,2023/6/28,17:47,35-24.25N,140-45.65E,35,22.155,33.6511
701,2023/6/28,17:48,35-24.46N,140-45.83E,34,22.178,33.6729
702,2023/6/28,17:49,35-24.68N,140-46.01E,34,22.314,33.6983
703,2023/6/28,17:50,35-24.90N,140-46.19E,34,22.413,33.6824
704,2023/6/28,17:51,35-25.14N,140-46.39E,34,22.393,33.6574
705,2023/6/28,17:52,35-25.37N,140-46.58E,34,22.462,33.6381
706,2023/6/28,17:53,35-25.59N,140-46.76E,34,22.573,33.5807
707,2023/6/28,17:54,35-25.82N,140-46.96E,34,22.692,33.5188
708,2023/6/28,17:55,35-26.06N,140-47.15E,33,22.742,33.4839
709,2023/6/28,17:56,35-26.28N,140-47.33E,33,22.803,33.4598
710,2023/6/28,17:57,35-26.51N,140-47.52E,34,22.8,33.436
711,2023/6/28,17:58,35-26.74N,140-47.71E,33,22.75,33.413
712,2023/6/28,17:59,35-26.98N,140-47.91E,34,22.709,33.4051
713,2023/6/28,18:00,35-27.19N,140-48.09E,34,22.677,33.4226